Volver al catálogo

STARLINK-34534

ActivoComunicacionesVLEO
NORAD 64763·PAYLOAD·🇺🇸 United States

Lanzado Jul 8, 2025 desde Cape Canaveral Space Force Station

Loading…

Próximos Pases (próximas 24 horas)

TLE

ActualizadoSource: CelesTrak SupGP

Época: Sep 15, 2026, 03:56 UTC

1 64763C 25147J   26258.16437500 -.00024122  00000+0 -71277-3 0  2581
2 64763  53.1577  78.7702 0001229  90.0989 357.1838 15.34398733    18

Sigue STARLINK-34534 en tiempo real con AllMySat

Download on the App Store